FW3933 Weather Reports


Display with metric or nautical units.
time (UTC)temp
F
wind
direction
speed
MPH
gust
MPH
rain 1hr
in
rain 24hr
in
rain mn
in
humidity
%
barometer
mb
20260831095505 63 228 0.0 0.0 0.00 0.00 0.00 63 1014.5
20260831095005 63 227 0.0 0.0 0.00 0.00 0.00 63 1014.6
20260831094505 63 226 0.0 0.0 0.00 0.00 0.00 63 1014.6
20260831094004 63 226 0.0 0.0 0.00 0.00 0.00 62 1014.6
20260831093503 63 226 0.0 0.0 0.00 0.00 0.00 63 1014.6
20260831092503 64 226 0.0 2.0 0.00 0.00 0.00 66 1014.6
20260831092002 64 222 0.0 2.0 0.00 0.00 0.00 65 1014.6
20260831091501 64 221 0.0 5.0 0.00 0.00 0.00 66 1014.7
20260831091001 65 240 0.0 1.0 0.00 0.00 0.00 65 1014.8
20260831090502 65 265 0.0 0.0 0.00 0.00 0.00 64 1014.8
20260831090001 65 265 0.0 4.0 0.00 0.00 0.00 63 1014.8
20260831085604 66 265 0.0 4.0 0.00 0.00 0.00 62 1014.8
20260831085501 66 265 0.0 4.0 0.00 0.00 0.00 62 1014.8
20260831085059 66 266 0.0 3.0 0.00 0.00 0.00 59 1014.8
20260831084606 66 265 0.0 5.0 0.00 0.00 0.00 58 1014.8
20260831084100 66 270 0.0 5.0 0.00 0.00 0.00 58 1014.8
20260831083600 66 287 0.0 5.0 0.00 0.00 0.00 58 1014.9
20260831082600 67 272 0.0 7.0 0.00 0.00 0.00 58 1015.0
20260831082101 67 265 1.0 7.0 0.00 0.00 0.00 56 1015.0
20260831081633 67 296 1.0 6.0 0.00 0.00 0.00 54 1015.0
20260831081507 67 294 1.0 6.0 0.00 0.00 0.00 54 1015.1
20260831081059 67 305 1.0 8.0 0.00 0.00 0.00 55 1015.0
20260831080559 67 307 1.0 8.0 0.00 0.00 0.00 52 1015.0
20260831080100 68 288 0.0 6.0 0.00 0.00 0.00 52 1015.1
20260831075559 68 303 0.0 5.0 0.00 0.00 0.00 51 1015.1
20260831075100 68 306 1.0 6.0 0.00 0.00 0.00 52 1015.2
20260831075002 68 306 0.0 6.0 0.00 0.00 0.00 51 1015.1
20260831074602 68 319 0.0 5.0 0.00 0.00 0.00 50 1015.2
20260831074101 68 330 1.0 5.0 0.00 0.00 0.00 49 1015.2
20260831073602 69 278 0.0 4.0 0.00 0.00 0.00 53 1015.2
20260831072558 69 279 0.0 4.0 0.00 0.00 0.00 51 1015.2
20260831072058 69 285 0.0 4.0 0.00 0.00 0.00 51 1015.1
20260831071558 69 286 0.0 4.0 0.00 0.00 0.00 50 1015.1
20260831071058 69 255 0.0 3.0 0.00 0.00 0.00 50 1015.1
20260831070600 69 289 0.0 5.0 0.00 0.00 0.00 49 1015.2
20260831070059 69 290 0.0 5.0 0.00 0.00 0.00 50 1015.1
20260831065558 69 256 0.0 4.0 0.00 0.00 0.00 51 1015.1
20260831065059 70 271 0.0 5.0 0.00 0.00 0.00 48 1015.1
20260831064607 70 276 0.0 7.0 0.00 0.00 0.00 51 1015.2
20260831064058 70 273 0.0 7.0 0.00 0.00 0.00 52 1015.2
20260831063558 70 264 0.0 6.0 0.00 0.00 0.00 51 1015.2
20260831062600 70 270 1.0 6.0 0.00 0.00 0.00 51 1015.3
20260831062058 70 283 0.0 7.0 0.00 0.00 0.00 50 1015.3
20260831061558 70 225 1.0 7.0 0.00 0.00 0.00 49 1015.3
20260831061059 71 257 0.0 7.0 0.00 0.00 0.00 48 1015.3
20260831060557 71 263 0.0 7.0 0.00 0.00 0.00 48 1015.3
20260831060110 71 230 1.0 8.0 0.00 0.00 0.00 47 1015.2
20260831055557 71 240 1.0 5.0 0.00 0.00 0.00 46 1015.3
20260831055059 71 226 0.0 5.0 0.00 0.00 0.00 46 1015.2
20260831054559 71 194 0.0 5.0 0.00 0.00 0.00 45 1015.2
20260831054057 71 228 0.0 4.0 0.00 0.00 0.00 46 1015.3
20260831053558 71 236 0.0 4.0 0.00 0.00 0.00 47 1015.3
20260831052556 72 259 0.0 5.0 0.00 0.00 0.00 46 1015.4
20260831052057 72 236 0.0 5.0 0.00 0.00 0.00 44 1015.4
20260831051556 72 221 0.0 6.0 0.00 0.00 0.00 45 1015.5
20260831051056 72 211 0.0 6.0 0.00 0.00 0.00 45 1015.5
20260831050556 72 251 0.0 5.0 0.00 0.00 0.00 46 1015.5
20260831050136 72 272 0.0 6.0 0.00 0.00 0.00 46 1015.5
20260831045556 73 212 0.0 8.0 0.00 0.00 0.00 45 1015.5
20260831045056 73 219 0.0 8.0 0.00 0.00 0.00 43 1015.5
20260831044556 73 181 1.0 8.0 0.00 0.00 0.00 44 1015.6
20260831044058 73 194 1.0 12.0 0.00 0.00 0.00 45 1015.5
20260831043555 73 199 1.0 12.0 0.00 0.00 0.00 44 1015.5
20260831042556 73 178 0.0 7.0 0.00 0.00 0.00 43 1015.4
20260831042056 73 192 1.0 7.0 0.00 0.00 0.00 43 1015.4
20260831041556 73 192 0.0 9.0 0.00 0.00 0.00 43 1015.3
20260831041057 73 202 0.0 9.0 0.00 0.00 0.00 44 1015.3
20260831040556 73 210 3.0 9.0 0.00 0.00 0.00 44 1015.3
20260831040056 73 191 2.0 12.0 0.00 0.00 0.00 44 1015.2
20260831035556 73 202 4.0 12.0 0.00 0.00 0.00 45 1015.2
20260831035055 73 190 4.0 12.0 0.00 0.00 0.00 46 1015.1
20260831034556 74 242 0.0 12.0 0.00 0.00 0.00 45 1015.0
20260831034055 74 211 2.0 9.0 0.00 0.00 0.00 46 1015.1
20260831033555 74 204 2.0 14.0 0.00 0.00 0.00 45 1014.9
20260831032555 74 199 5.0 13.0 0.00 0.00 0.00 44 1014.9
20260831032059 74 172 4.0 14.0 0.00 0.00 0.00 44 1014.8
20260831031556 75 193 3.0 15.0 0.00 0.00 0.00 44 1014.8
20260831031055 75 168 5.0 13.0 0.00 0.00 0.00 44 1014.7
20260831030555 75 204 3.0 14.0 0.00 0.00 0.00 44 1014.7
20260831030059 75 214 5.0 14.0 0.00 0.00 0.00 43 1014.7
20260831025555 76 175 3.0 12.0 0.00 0.00 0.00 43 1014.7
20260831025058 76 221 4.0 13.0 0.00 0.00 0.00 43 1014.7
20260831024556 76 186 4.0 14.0 0.00 0.00 0.00 43 1014.6
20260831024055 76 226 3.0 13.0 0.00 0.00 0.00 43 1014.6
20260831023555 77 211 6.0 15.0 0.00 0.00 0.00 42 1014.6
20260831022556 77 211 6.0 14.0 0.00 0.00 0.00 42 1014.6
20260831022054 78 222 4.0 13.0 0.00 0.00 0.00 41 1014.6
20260831021555 78 220 4.0 13.0 0.00 0.00 0.00 41 1014.5
20260831021054 79 197 4.0 13.0 0.00 0.00 0.00 41 1014.5
20260831020554 79 167 6.0 17.0 0.00 0.00 0.00 40 1014.5
20260831020054 80 200 4.0 17.0 0.00 0.00 0.00 39 1014.5
20260831015553 80 176 6.0 15.0 0.00 0.00 0.00 39 1014.5
20260831015055 80 206 4.0 12.0 0.00 0.00 0.00 40 1014.5
20260831014553 81 205 4.0 10.0 0.00 0.00 0.00 41 1014.4
20260831014053 81 174 2.0 10.0 0.00 0.00 0.00 39 1014.4
20260831013553 82 224 3.0 10.0 0.00 0.00 0.00 36 1014.4
20260831012531 83 174 2.0 10.0 0.00 0.00 0.00 36 1014.5
20260831012033 83 183 0.0 8.0 0.00 0.00 0.00 36 1014.4
20260831011537 84 215 1.0 9.0 0.00 0.00 0.00 34 1014.5
20260831011030 84 176 1.0 9.0 0.00 0.00 0.00 32 1014.5
20260831010530 85 248 0.0 9.0 0.00 0.00 0.00 32 1014.4
20260831010030 85 184 2.0 9.0 0.00 0.00 0.00 30 1014.4
20260831005530 86 198 0.0 4.0 0.00 0.00 0.00 32 1014.5
20260831005032 87 251 0.0 2.0 0.00 0.00 0.00 31 1014.5
20260831004530 87 242 0.0 3.0 0.00 0.00 0.00 31 1014.5
20260831004030 88 242 0.0 3.0 0.00 0.00 0.00 26 1014.5
20260831003529 88 239 0.0 4.0 0.00 0.00 0.00 24 1014.5
20260831002550 88 217 0.0 4.0 0.00 0.00 0.00 19 1014.6
20260831002050 89 202 0.0 2.0 0.00 0.00 0.00 19 1014.7
20260831001549 90 192 0.0 2.0 0.00 0.00 0.00 18 1014.7
20260831001049 90 180 0.0 2.0 0.00 0.00 0.00 19 1014.8
20260831000549 90 180 0.0 2.0 0.00 0.00 0.00 21 1014.7
20260831000057 90 180 0.0 0.0 0.00 0.00 0.00 19 1014.7
20260830235547 90 179 0.0 0.0 0.00 0.00 0.00 19 1014.7
20260830235047 91 179 0.0 0.0 0.00 0.00 0.00 19 1014.8
20260830234601 91 179 0.0 0.0 0.00 0.00 0.00 20 1014.8
20260830232511 90 179 0.0 1.0 0.00 0.00 0.00 19 1014.9
20260830232001 91 179 0.0 1.0 0.00 0.00 0.00 19 1015.0
20260830231601 91 170 0.0 0.0 0.00 0.00 0.00 19 1015.0
20260830231102 91 170 0.0 0.0 0.00 0.00 0.00 18 1015.1
20260830230603 91 170 0.0 0.0 0.00 0.00 0.00 20 1015.1
20260830230059 92 170 0.0 0.0 0.00 0.00 0.00 19 1015.2
20260830225559 92 170 0.0 0.0 0.00 0.00 0.00 21 1015.2
20260830225059 92 170 0.0 0.0 0.00 0.00 0.00 22 1015.4
20260830224605 92 170 0.0 0.0 0.00 0.00 0.00 22 1015.4
20260830224058 92 170 0.0 0.0 0.00 0.00 0.00 24 1015.4
20260830223557 92 170 0.0 0.0 0.00 0.00 0.00 21 1015.5
20260830222554 92 170 0.0 0.0 0.00 0.00 0.00 22 1015.6
20260830222055 91 170 0.0 0.0 0.00 0.00 0.00 21 1015.7
20260830221552 91 170 0.0 0.0 0.00 0.00 0.00 27 1015.8
20260830221051 89 170 0.0 0.0 0.00 0.00 0.00 23 1015.9
20260830220550 88 170 0.0 0.0 0.00 0.00 0.00 23 1016.0
20260830220059 88 170 0.0 0.0 0.00 0.00 0.00 30 1016.1
20260830215546 87 169 0.0 1.0 0.00 0.00 0.00 32 1016.1
20260830215046 87 169 0.0 1.0 0.00 0.00 0.00 34 1016.2
20260830214544 87 164 0.0 3.0 0.00 0.00 0.00 33 1016.3
20260830214046 87 151 0.0 3.0 0.00 0.00 0.00 29 1016.4
20260830213545 87 128 0.0 1.0 0.00 0.00 0.00 22 1016.4
20260830212534 88 134 0.0 3.0 0.00 0.00 0.00 33 1016.5
20260830212034 88 134 0.0 3.0 0.00 0.00 0.00 33 1016.6
20260830211534 87 101 0.0 5.0 0.00 0.00 0.00 22 1016.5
20260830211032 87 93 1.0 5.0 0.00 0.00 0.00 22 1016.6
20260830210533 86 96 1.0 7.0 0.00 0.00 0.00 23 1016.6
20260830210033 86 98 3.0 7.0 0.00 0.00 0.00 21 1016.6
20260830205534 87 96 3.0 7.0 0.00 0.00 0.00 20 1016.7
20260830205032 87 88 1.0 7.0 0.00 0.00 0.00 23 1016.7
20260830204547 88 132 0.0 5.0 0.00 0.00 0.00 23 1016.7
20260830204030 87 90 1.0 6.0 0.00 0.00 0.00 22 1016.8
20260830203529 87 164 0.0 6.0 0.00 0.00 0.00 22 1016.8
20260830202539 86 166 0.0 6.0 0.00 0.00 0.00 35 1016.9
20260830202037 86 173 0.0 4.0 0.00 0.00 0.00 24 1016.9
20260830201537 85 151 0.0 3.0 0.00 0.00 0.00 35 1017.0
20260830201034 84 224 0.0 1.0 0.00 0.00 0.00 36 1017.0
20260830200532 83 224 0.0 1.0 0.00 0.00 0.00 37 1017.1
20260830200037 82 224 0.0 1.0 0.00 0.00 0.00 37 1017.1
20260830195530 81 224 0.0 1.0 0.00 0.00 0.00 42 1017.3
20260830195029 81 224 0.0 1.0 0.00 0.00 0.00 44 1017.2
20260830194529 81 220 0.0 1.0 0.00 0.00 0.00 44 1017.3
20260830194028 80 220 0.0 1.0 0.00 0.00 0.00 41 1017.3
20260830193526 80 220 0.0 1.0 0.00 0.00 0.00 45 1017.4
20260830192515 80 187 0.0 1.0 0.00 0.00 0.00 45 1017.5
20260830192015 79 187 0.0 3.0 0.00 0.00 0.00 45 1017.5
20260830191559 79 187 0.0 3.0 0.00 0.00 0.00 45 1017.5
20260830191014 79 241 0.0 0.0 0.00 0.00 0.00 46 1017.5
20260830190513 79 240 0.0 0.0 0.00 0.00 0.00 47 1017.5
20260830190012 78 240 0.0 1.0 0.00 0.00 0.00 47 1017.5
20260830185513 78 240 0.0 1.0 0.00 0.00 0.00 48 1017.6
20260830185016 78 195 0.0 0.0 0.00 0.00 0.00 49 1017.6
20260830184510 77 195 0.0 0.0 0.00 0.00 0.00 49 1017.7
20260830184007 77 244 0.0 0.0 0.00 0.00 0.00 51 1017.7
20260830183506 76 244 0.0 0.0 0.00 0.00 0.00 52 1017.7
20260830182519 74 274 0.0 0.0 0.00 0.00 0.00 54 1017.8
20260830182017 74 274 0.0 2.0 0.00 0.00 0.00 56 1017.8
20260830181517 74 280 0.0 2.0 0.00 0.00 0.00 55 1017.8
20260830181014 73 256 0.0 1.0 0.00 0.00 0.00 56 1017.8
20260830180512 73 259 0.0 3.0 0.00 0.00 0.00 58 1017.9
20260830180011 72 273 0.0 2.0 0.00 0.00 0.00 59 1017.9
20260830175510 72 257 0.0 1.0 0.00 0.00 0.00 60 1017.8
20260830175013 71 258 0.0 2.0 0.00 0.00 0.00 60 1017.9
20260830174511 71 282 0.0 2.0 0.00 0.00 0.00 58 1018.0
20260830174007 71 277 0.0 2.0 0.00 0.00 0.00 59 1018.0
20260830173507 71 278 0.0 1.0 0.00 0.00 0.00 60 1018.0
20260830172556 70 278 0.0 4.0 0.00 0.00 0.00 62 1017.9
20260830172056 70 288 0.0 2.0 0.00 0.00 0.00 62 1017.9
20260830171555 69 253 0.0 2.0 0.00 0.00 0.00 64 1018.1
20260830171054 69 245 0.0 2.0 0.00 0.00 0.00 63 1017.9
20260830170553 69 263 0.0 0.0 0.00 0.00 0.00 63 1018.1
20260830170052 68 263 0.0 0.0 0.00 0.00 0.00 64 1018.1
20260830165550 68 261 0.0 2.0 0.00 0.00 0.00 64 1018.0
20260830165051 68 261 0.0 2.0 0.00 0.00 0.00 64 1018.1
20260830164550 68 255 0.0 1.0 0.00 0.00 0.00 64 1018.1
20260830164048 67 255 0.0 1.0 0.00 0.00 0.00 64 1018.2
20260830163547 66 288 0.0 0.0 0.00 0.00 0.00 66 1018.1
20260830163146 66 288 0.0 4.0 0.00 0.00 0.00 66 1018.1
20260830162545 66 288 0.0 4.0 0.00 0.00 0.00 66 1018.2
20260830162045 66 294 0.0 1.0 0.00 0.00 0.00 66 1018.3
20260830161551 65 294 0.0 1.0 0.00 0.00 0.00 67 1018.3
20260830161040 65 294 0.0 0.0 0.00 0.00 0.00 68 1018.3
20260830160539 64 294 0.0 0.0 0.00 0.00 0.00 68 1018.3
20260830160042 64 294 0.0 0.0 0.00 0.00 0.00 69 1018.3
20260830155537 64 294 0.0 0.0 0.00 0.00 0.00 70 1018.4
20260830155036 63 294 0.0 0.0 0.00 0.00 0.00 70 1018.3
20260830154538 63 294 0.0 0.0 0.00 0.00 0.00 72 1018.4
20260830154035 62 294 0.0 1.0 0.00 0.00 0.00 72 1018.3
20260830153535 62 294 0.0 2.0 0.00 0.00 0.00 71 1018.3
20260830153133 62 301 0.0 2.0 0.00 0.00 0.00 72 1018.3
20260830152535 62 303 0.0 1.0 0.00 0.00 0.00 72 1018.2
20260830152036 62 304 0.0 4.0 0.00 0.00 0.00 73 1018.2
20260830151534 62 307 0.0 4.0 0.00 0.00 0.00 73 1018.2
20260830151034 62 279 0.0 3.0 0.00 0.00 0.00 74 1018.2
20260830150534 61 294 0.0 1.0 0.00 0.00 0.00 74 1018.2
20260830150040 61 269 0.0 2.0 0.00 0.00 0.00 75 1018.2
20260830145536 61 329 0.0 2.0 0.00 0.00 0.00 75 1018.2
20260830145034 61 266 0.0 0.0 0.00 0.00 0.00 75 1018.2
20260830144537 61 266 0.0 0.0 0.00 0.00 0.00 76 1018.2
20260830144032 60 266 0.0 0.0 0.00 0.00 0.00 76 1018.1
20260830143532 60 266 0.0 0.0 0.00 0.00 0.00 77 1018.1
20260830143132 59 266 0.0 0.0 0.00 0.00 0.00 77 1018.1
20260830142532 59 266 0.0 0.0 0.00 0.00 0.00 77 1018.1
20260830142032 59 266 0.0 0.0 0.00 0.00 0.00 77 1018.0
20260830141530 59 265 0.0 0.0 0.00 0.00 0.00 78 1017.9
20260830141029 58 265 0.0 0.0 0.00 0.00 0.00 78 1017.8
20260830140529 58 265 0.0 0.0 0.00 0.00 0.00 78 1017.8
20260830140029 58 265 0.0 0.0 0.00 0.00 0.00 79 1017.7
20260830135528 58 265 0.0 0.0 0.00 0.00 0.00 78 1017.6
20260830135030 58 265 0.0 0.0 0.00 0.00 0.00 78 1017.7
20260830134528 58 265 0.0 0.0 0.00 0.00 0.00 78 1017.6
20260830134028 58 265 0.0 0.0 0.00 0.00 0.00 79 1017.6
20260830133528 58 265 0.0 0.0 0.00 0.00 0.00 79 1017.6
20260830133126 58 265 0.0 0.0 0.00 0.00 0.00 79 1017.5
20260830132527 58 265 0.0 0.0 0.00 0.00 0.00 79 1017.4
20260830132032 58 265 0.0 0.0 0.00 0.00 0.00 79 1017.4
20260830131543 58 265 0.0 0.0 0.00 0.00 0.00 78 1017.4
20260830131026 58 264 0.0 0.0 0.00 0.00 0.00 78 1017.4
20260830130525 58 263 0.0 0.0 0.00 0.00 0.00 78 1017.4
20260830130025 58 263 0.0 0.0 0.00 0.00 0.00 78 1017.4
20260830125525 58 263 0.0 1.0 0.00 0.00 0.00 77 1017.3
20260830125027 59 263 0.0 2.0 0.00 0.00 0.00 77 1017.3
20260830124524 59 257 0.0 2.0 0.00 0.00 0.00 76 1017.2
20260830124022 59 208 0.0 2.0 0.00 0.00 0.00 75 1017.2
20260830123522 59 294 0.0 5.0 0.00 0.00 0.00 75 1017.2
20260830123122 59 295 0.0 5.0 0.00 0.00 0.00 74 1017.2
20260830122538 59 307 0.0 3.0 0.00 0.00 0.00 74 1017.2
20260830122038 59 274 0.0 2.0 0.00 0.00 0.00 74 1017.2
20260830121540 59 282 0.0 0.0 0.00 0.00 0.00 74 1017.2
20260830121040 59 280 0.0 3.0 0.00 0.00 0.00 73 1017.2
20260830120537 59 280 0.0 3.0 0.00 0.00 0.00 74 1017.2
20260830120054 59 274 0.0 0.0 0.00 0.00 0.00 73 1017.2
20260830115636 59 274 0.0 0.0 0.00 0.00 0.00 73 1017.2
20260830115036 59 274 0.0 0.0 0.00 0.00 0.00 72 1017.2
20260830114536 60 274 0.0 0.0 0.00 0.00 0.00 72 1017.2
20260830114036 60 274 0.0 2.0 0.00 0.00 0.00 72 1017.2
20260830113534 60 282 0.0 0.0 0.00 0.00 0.00 72 1017.2
20260830113135 60 282 0.0 2.0 0.00 0.00 0.00 72 1017.2
20260830112519 60 280 0.0 2.0 0.00 0.00 0.00 72 1017.2
20260830112019 60 279 0.0 3.0 0.00 0.00 0.00 72 1017.2
20260830111527 60 279 0.0 3.0 0.00 0.00 0.00 71 1017.2
20260830111018 60 280 0.0 0.0 0.00 0.00 0.00 71 1017.3
20260830110517 60 279 0.0 0.0 0.00 0.00 0.00 70 1017.2
20260830110016 60 280 0.0 1.0 0.00 0.00 0.00 71 1017.2
20260830105516 61 280 0.0 3.0 0.00 0.00 0.00 71 1017.2
20260830105018 61 294 0.0 3.0 0.00 0.00 0.00 70 1017.2
20260830104517 61 296 0.0 3.0 0.00 0.00 0.00 70 1017.2
20260830104015 61 305 0.0 2.0 0.00 0.00 0.00 70 1017.2
20260830103515 61 281 0.0 2.0 0.00 0.00 0.00 69 1017.2
20260830103116 61 237 0.0 6.0 0.00 0.00 0.00 69 1017.2
20260830102518 61 236 0.0 6.0 0.00 0.00 0.00 69 1017.2
20260830102023 61 294 0.0 6.0 0.00 0.00 0.00 69 1017.2
20260830101518 61 249 0.0 6.0 0.00 0.00 0.00 69 1017.2
20260830101019 61 254 0.0 5.0 0.00 0.00 0.00 69 1017.1
20260830100517 61 279 0.0 5.0 0.00 0.00 0.00 69 1017.1
20260830100017 62 269 0.0 7.0 0.00 0.00 0.00 69 1017.1